Preview of NWS' New Version of Forecast
This preview is not operational and should not be used for support decisions.
Latest weather observations around

Mount Shasta (KMHS)

Using English Units (Switch to International System of Units)
Date/ Time (PST) Wind (mph) Vis. (mi) Weather Sky Cond. Temp (°F) Rel. Humidity Wind Chill (°F) Heat Index (°F) Pressure Precip. (in)
Air Dwpt 6 hour Altimeter (inHg) Sea level (inHg) 1 hr 3 hr 6 hr
Max Min
Feb 19 18:56 3 10 Partly Cloudy SCT039 27 10     48% 23   30.01 30.14      
Feb 19 17:56 6 10 Mostly Clear FEW040 28 13     53% 22   29.98 30.11      
Feb 19 16:56 N 6 10 Mostly Clear FEW049 29 13     51% 23   29.97 30.09      
Feb 19 15:56 6 10 Mostly Clear FEW055 32 13     45% 26   29.95 30.07 0   0
Feb 19 14:56 7 10 Partly Cloudy FEW034 SCT049 34 14     43% 28   29.94 30.06      
Feb 19 13:56 NNW 8 10 Clear CLR 34 12     40% 27   29.93 30.04      
Feb 19 12:56 7 10 Mostly Cloudy BKN048 35 12     38% 29   29.93 30.04      
Feb 19 11:56 7 10 Mostly Cloudy BKN055 33 11     39% 27   29.94 30.05      
Feb 19 10:56 N 9 10 Cloudy OVC050 29 12     49% 20   29.94 30.06      
Feb 19 09:56 NNW 9 10 Cloudy FEW029 BKN040 OVC048 28 15     58% 19   29.92 30.04     0
Feb 19 09:03 6 10 Mostly Cloudy FEW022 BKN030 BKN047 28 18     65% 22   29.88        
Feb 19 08:56 NNW 9 10 Mostly Cloudy BKN026 BKN032 BKN049 27 18     68% 18   29.88 30.01 0    
Feb 19 08:46 7 3 Light Snow FEW024 BKN030 BKN034 26 18     71% 18   29.88   0    
Feb 19 08:31 NNW 8 1.75 Light Snow FEW028 BKN039 OVC049 27 18     68% 19   29.87   0    
Feb 19 07:56 N 7 10 Mostly Cloudy SCT027 BKN049 26 17     68% 18   29.86 29.98      
Feb 19 06:56 5 10 Mostly Cloudy FEW027 SCT036 BKN044 24 17     74% 18   29.83 29.96 0 0  
Feb 19 05:56 NNW 8 10 Cloudy OVC050 26 15     63% 18   29.81 29.93      
Feb 19 04:56   10 Cloudy OVC049 26 14     60%     29.78 29.89      
Feb 19 03:56 5 10 Cloudy BKN040 BKN047 OVC055 26 14     60% 20   29.77 29.87     0
Feb 19 02:56 NW 5 10 Partly Cloudy SCT047 24 14     65% 18   29.75 29.86 0    
Feb 19 01:56 N 8 9 Mostly Cloudy FEW042 SCT050 BKN070 26 13     57% 18   29.75 29.85      
Feb 19 00:56 6 10 Cloudy SCT055 BKN075 OVC095 26 13     57% 19   29.74 29.85   0  
Feb 18 23:56 3 10 Cloudy SCT055 OVC070 26 16     65% 22   29.74 29.85 0    
Feb 18 22:56 5 10 Mostly Clear FEW020 25 18     74% 19   29.73 29.83 0    
Feb 18 22:46 N 7 9 Partly Cloudy FEW025 SCT070 25 19     78% 17   29.73   0    
Feb 18 22:38 NNE 6 5 Light Snow BKN027 BKN070 25 19     78% 18   29.74   0    
Feb 18 22:27   3 Light Snow BKN033 BKN070 OVC085 26 19     74%     29.74   0    
Feb 18 22:19 5 1.75 Light Snow BKN031 BKN075 OVC090 26 19     74% 20   29.74   0    
Feb 18 21:56 3 8 Light Snow BKN070 OVC090 28 16     60% 24   29.73 29.83 0   0
Feb 18 20:56 3 10 Cloudy FEW039 BKN055 OVC070 29 16     58% 25   29.74 29.83      
Feb 18 19:56 5 10 Mostly Cloudy FEW060 BKN080 BKN100 29 16     58% 24   29.73 29.83      
Feb 18 18:56 3 10 Partly Cloudy SCT060 29 16     58% 25   29.72 29.83      
Feb 18 17:56 7 10 Mostly Clear FEW045 30 18     60% 23   29.73 29.83      
Feb 18 16:56 5 10 Cloudy SCT055 OVC075 34 17     50% 30   29.72 29.81      
Feb 18 15:56 6 10 Mostly Cloudy FEW046 SCT070 BKN100 35 20     54% 30   29.72 29.8     0
Feb 18 14:56 NNE 9 10 Partly Cloudy FEW060 SCT075 35 21     56% 28   29.73 29.83      
Feb 18 13:56 5 10 Mostly Cloudy FEW025 SCT070 BKN095 36 20     52% 32   29.74 29.82 0    
Feb 18 12:56 Calm 4 Light Snow SCT033 BKN055 OVC080 35 24     64%     29.77 29.85 0 0  
Feb 18 12:36   8 Light Snow SCT016 BKN034 OVC100 33 24     69%     29.78   0    
Feb 18 12:32 Calm 2.5 Light Snow BKN016 BKN030 OVC100 32 25     75%     29.78   0    
Feb 18 12:28 5 1 Light Snow BKN016 OVC030 31 25     78% 26   29.78   0    
Feb 18 12:14 N 8 0.5 Snow BKN018 OVC031 31 25     78% 23   29.79   0    
Feb 18 12:06 N 9 1.25 Light Snow FEW019 BKN026 OVC047 33 26     75% 25   29.8   0    
Feb 18 12:03 N 9 1.5 Light Snow FEW019 BKN031 OVC047 33 26     75% 25   29.79   0    
Feb 18 11:56 6 1 Light Snow FEW016 SCT021 OVC029 33 27     78% 28   29.8 29.88 0    
Feb 18 11:52 6 1.5 Light Snow FEW014 BKN029 OVC050 36 27     69% 31   29.8   0    
Feb 18 11:47 Calm 7 Light Snow BKN029 BKN040 OVC050 35 28     75%     29.79   0    
Feb 18 11:38 Calm 2 Cloudy BKN025 BKN029 OVC040 32 27     81%     29.79   0    
Feb 18 11:23 NNW 8 1.25 Cloudy BKN029 BKN036 OVC050 34 24     67% 27   29.79   0    
Feb 18 11:19 NNW 7 1.75 Cloudy BKN034 BKN043 OVC050 34 23     64% 28   29.78   0    
Feb 18 10:56 WNW 5 10 Cloudy BKN055 BKN065 OVC080 38 22     52% 34   29.78 29.84 0    
Feb 18 09:56 7 10 Cloudy FEW055 SCT065 OVC090 38 15     39% 33   29.78 29.84      
Feb 18 08:56 7 10 Partly Cloudy SCT070 SCT080 39 14     36% 34   29.78 29.83      
Feb 18 07:56 Calm 10 Mostly Cloudy BKN070 32 23     69%     29.79 29.86      
Feb 18 06:56 Calm 10 Clear CLR 29 23     78%     29.78 29.85      
Feb 18 05:56 Calm 10 Clear CLR 33 23     66%     29.79 29.85      
Feb 18 04:56 Calm 10 Clear CLR 33 24     69%     29.8 29.84      
Feb 18 03:56 Calm 10 Clear CLR 37 25     61%     29.8 29.83      
Feb 18 02:56 Calm 10 Clear CLR 32 28     85%     29.81 29.86      
Feb 18 01:56 Calm 9 Clear CLR 33 29     85%     29.83 29.87      
Feb 18 00:56 Calm 10 Mostly Clear FEW060 FEW075 35 30     82%     29.84 29.88      
Feb 17 23:56 Calm 10 Clear CLR 40 32     73%     29.84 29.88      
Feb 17 22:56 Calm 10 Cloudy BKN070 OVC085 44 34     67%     29.86 29.9      
Feb 17 21:56 SE 5 10 Cloudy FEW065 OVC080 45 34     65% 43   29.88 29.92      
Feb 17 20:56 Calm 10 Cloudy OVC075 46 34     63%     29.9 29.96      
Feb 17 19:56 E 5 10 Mostly Clear FEW075 46 34     63% 44   29.92 30      
Feb 17 18:56 E 5 10 Clear CLR 48 35     61% 46   29.95 30.02      
Feb 17 17:56 3 10 Clear CLR 52 28     39%     29.95 30.02      
Feb 17 16:56 Calm 10 Clear CLR 56 35     45%     29.96 30.01      
Feb 17 15:56 Calm 10 Clear CLR 59 36     42%     29.98 30.03      
Feb 17 12:56 E 3 10 Cloudy OVC080 58 35     42%       30.11      
Feb 17 11:56 5 10 Partly Cloudy SCT075 56 34     43%       30.14      
Feb 17 10:56 Calm 10 Clear CLR 52 34     50%       30.17      
Feb 17 09:56 Calm 10 Clear CLR 47 31     53%     30.15 30.21      
Feb 17 08:56 Calm 10 Clear CLR 40 30     67%     30.17 30.24      
Feb 17 07:56 Calm 10 Clear CLR 31 27     85%     30.18 30.27      
Feb 17 06:56 ENE 3 10 Clear CLR 29 26     89% 25   30.18 30.27      
Feb 17 05:56 NE 3 10 Clear CLR 29 26     89% 25   30.18 30.27      
Feb 17 04:56 Calm 10 Clear CLR 33 27     78%     30.18 30.26      
Feb 17 03:56 3 10 Clear CLR 31 26     82% 28   30.2 30.27      
Feb 17 02:56 Calm 10 Clear CLR 33 27     78%     30.21 30.27      
Feb 17 01:56 Calm 10 Clear CLR 37 28     70%     30.23 30.29      
Feb 17 00:56 6 10 Clear CLR 39 28     64% 35   30.24 30.3      
Feb 16 23:56 5 10 Clear CLR 40 28     62% 37   30.25 30.31      
Feb 16 22:56 5 10 Clear CLR 40 27     60% 37   30.25 30.32      
Feb 16 21:56 NW 8 10 Clear CLR 40 27     60% 34   30.25 30.33      
Feb 16 20:56 WNW 8 10 Clear CLR 41 26     55% 36   30.24 30.33      
Feb 16 19:56 NNW 6 10 Mostly Clear FEW049 44 25     47% 41   30.24 30.33      
Jun 11 19:56 N 11 10 Cloudy FEW024 BKN038 OVC075 44 39     82% 38   29.93 30 0 0  
Jun 11 18:56 N 8 9 Light Rain BKN037 OVC048 44 40     85% 40   29.93 29.99 0    
Jun 11 12:56 3 5 Light Rain and Fog/Mist BKN023 OVC030 40 37     89% 38   29.93 30 0    
Jun 11 05:25 NW 3 9 Light Rain BKN008 OVC015 38 35     89% 36   29.9   0    
Jun 10 15:56 Calm 10 Light Rain FEW043 OVC060 55 41     59%     29.85 29.89 0    
Jun 10 14:56 3 10 Light Rain FEW021 BKN060 OVC075 57 41     55%     29.85 29.89 0    
Jun 09 00:56 Calm 10 Clear   45 43     93%     29.97 30.01      
Jun 08 08:17 3 6 Light Rain and Fog/Mist FEW027 BKN039 OVC055 46 44     93% 45   29.93   0    
Notice The following observation data may not be complete
Jun 08 04:07   4 Rain and Fog/Mist FEW007 BKN023 OVC037          %         0    
Jun 07 18:56 3 10 Clear CLR 67 40     37%     29.84 29.82      
Jun 07 16:56 Calm 10 Clear CLR 69 42     38%     29.87 29.86      
Jun 07 06:56 Calm 10 Clear CLR 56 47     72%     29.92 29.89      
Notice The following observation data may not be complete
Jun 07 05:56 Calm 10 Clear CLR   45      %     29.92 29.9      
Jun 06 11:56 Calm 10 Clear CLR 79 46     31%   78 29.98 29.95